This is the latest recevied weather packets stored in our database for station/object AD7ZD. If no packets are shown the sender has not sent any weather packets the latest 10 day(s).
| Time | Temp. | Humidity | Pressure | Rain* | Wind** | Luminosity | Snow |
|---|---|---|---|---|---|---|---|
| 1777518386 | 17.22° C | 22% | 1013.9 hPa | 0 mm | - | 0 W/m² | - |
| 1777518081 | 17.22° C | 22% | 1013.9 hPa | 0 mm | - | 0 W/m² | - |
| 1777517777 | 17.78° C | 22% | 1013.9 hPa | 0 mm | - | 0 W/m² | - |
| 1777517473 | 17.78° C | 21% | 1013.6 hPa | 0 mm | - | 0 W/m² | - |
| 1777517172 | 17.78° C | 21% | 1013.6 hPa | 0 mm | - | 0 W/m² | - |
| 1777516870 | 17.78° C | 21% | 1013.7 hPa | 0 mm | - | 2 W/m² | - |
| 1777516566 | 17.78° C | 21% | 1013.4 hPa | 0 mm | - | 6 W/m² | - |
| 1777516262 | 18.33° C | 21% | 1013.3 hPa | 0 mm | - | 10 W/m² | - |
| 1777515958 | 18.33° C | 21% | 1013.1 hPa | 0 mm | - | 16 W/m² | - |
| 1777515655 | 18.33° C | 21% | 1013.3 hPa | 0 mm | - | 17 W/m² | - |
| 1777515353 | 18.89° C | 20% | 1013.4 hPa | 0 mm | - | 20 W/m² | - |
| 1777515048 | 18.89° C | 20% | 1013.3 hPa | 0 mm | - | 22 W/m² | - |
| 1777514744 | 18.89° C | 20% | 1013.4 hPa | 0 mm | - | 24 W/m² | - |
| 1777514442 | 19.44° C | 20% | 1013.3 hPa | 0 mm | - | 27 W/m² | - |
| 1777514138 | 19.44° C | 19% | 1013.5 hPa | 0 mm | - | 39 W/m² | - |
| 1777513835 | 19.44° C | 19% | 1013.3 hPa | 0 mm | - | 56 W/m² | - |
| 1777513533 | 19.44° C | 19% | 1013.4 hPa | 0 mm | - | 89 W/m² | - |
| 1777513230 | 19.44° C | 19% | 1013.1 hPa | 0 mm | - | 100 W/m² | - |
| 1777512926 | 20° C | 19% | 1013.3 hPa | 0 mm | - | 110 W/m² | - |
| 1777512319 | 20° C | 19% | 1013.4 hPa | 0 mm | - | 155 W/m² | - |
| 1777512015 | 20° C | 18% | 1013.4 hPa | 0 mm | - | 158 W/m² | - |
| 1777511714 | 20° C | 18% | 1013.5 hPa | 0 mm | - | 174 W/m² | - |
| 1777511411 | 20° C | 18% | 1013.3 hPa | 0 mm | - | 150 W/m² | - |
| 1777511108 | 20° C | 19% | 1013.5 hPa | 0 mm | - | 215 W/m² | - |
| 1777510500 | 20° C | 19% | 1013.5 hPa | 0 mm | - | 245 W/m² | - |
* Rain latest hour (hover to see other rain measurements)
** Current wind speed in m/s (hover to see current wind gust speed)